Weather History for West Palm Beach, FL

Change the Weather History Date:

Thursday, January 19, 2012

  Actual Average Record
Temperature  
Mean Temperature 68 °F 66 °F  
Max Temperature 74 °F 75 °F 86 °F (1987)
Min Temperature 62 °F 57 °F 29 °F (1977)
Degree Days  
Heating Degree Days 0 3  
Month to date heating degree days 75 57  
Since 1 July heating degree days 86 128  
Cooling Degree Days 3 3  
Month to date cooling degree days 27 64  
Year to date cooling degree days 30 64  
Growing Degree Days 15 (Base 50)    
Moisture  
Dew Point 55 °F    
Average Humidity 69    
Maximum Humidity 93    
Minimum Humidity 44    
Precipitation  
Precipitation 0.00 in 0.10 in 2.86 in (1908)
Month to date precipitation T 2.00  
Year to date precipitation T 2.00  
Snow  
Snow 0.00 in - - ()
Month to date snowfall 0.0  
Since 1 July snowfall 0.0  
Snow Depth 0.00 in    
Sea Level Pressure  
Sea Level Pressure 30.09 in    
Wind  
Wind Speed 9 mph (NNW)    
Max Wind Speed 18 mph    
Max Gust Speed 24 mph    
Visibility 10 miles    
Events      
T = Trace of Precipitation, MM = Missing Value Source: NWS Daily Summary

Daily Weather History Graph

Daily Weather History Graph

Search for Another Location

Airport:

Trip Planner

Search our weather history database for the weather conditions in past years. The results will help you decide how hot, cold, wet, or windy it might be!

Date:

Astronomy

Jan. 19, 2012 Rise Set
Actual Time 7:10 AM EST 5:52 PM EST
Civil Twilight 6:45 AM EST 6:17 PM EST
Nautical Twilight 6:16 AM EST 6:45 PM EST
Astronomical Twilight 5:48 AM EST 7:13 PM EST
Moon 3:39 AM EST (1/19) 2:28 PM EST (1/19)
Length of Visible Light 11h 31m
Length of Day
10h 42m
Waning Crescent, 16% of the Moon is Illuminated
Jan 19
Waning Crescent
Jan 23
New
Jan 30
First Quarter
Feb 7
Full
Feb 14
Last Quarter

Hourly Weather History & Observations

Time (EST) Temp. Dew Point Humidity Pressure Visibility Wind Dir Wind Speed Gust Speed Precip Events Conditions
12:53 AM 64.9 °F 59.0 °F 81% 30.04 in 10.0 mi West 10.4 mph - N/A   Scattered Clouds
1:53 AM 66.0 °F 59.0 °F 78% 30.02 in 10.0 mi West 9.2 mph - N/A   Mostly Cloudy
2:53 AM 64.9 °F 60.1 °F 84% 30.01 in 10.0 mi WNW 10.4 mph - N/A   Mostly Cloudy
3:53 AM 64.9 °F 60.1 °F 84% 30.00 in 10.0 mi West 8.1 mph - N/A   Overcast
4:53 AM 64.9 °F 61.0 °F 87% 30.01 in 10.0 mi NW 13.8 mph - N/A   Mostly Cloudy
5:53 AM 63.0 °F 61.0 °F 93% 30.04 in 10.0 mi NW 11.5 mph - N/A   Scattered Clouds
6:53 AM 62.1 °F 60.1 °F 93% 30.07 in 10.0 mi NW 9.2 mph - N/A   Scattered Clouds
7:53 AM 62.1 °F 59.0 °F 90% 30.09 in 6.0 mi NNW 10.4 mph - N/A   Scattered Clouds
8:53 AM 64.9 °F 59.0 °F 81% 30.11 in 10.0 mi NNW 11.5 mph - N/A   Scattered Clouds
9:53 AM 68.0 °F 57.9 °F 70% 30.14 in 10.0 mi North 13.8 mph 19.6 mph N/A   Scattered Clouds
10:53 AM 70.0 °F 55.0 °F 59% 30.15 in 10.0 mi NNE 13.8 mph - N/A   Partly Cloudy
11:53 AM 72.0 °F 55.0 °F 55% 30.13 in 10.0 mi NNE 11.5 mph - N/A   Partly Cloudy
12:53 PM 73.9 °F 51.1 °F 45% 30.11 in 10.0 mi NNE 13.8 mph - N/A   Partly Cloudy
1:53 PM 73.9 °F 52.0 °F 46% 30.09 in 10.0 mi NE 12.7 mph 19.6 mph N/A   Scattered Clouds
2:53 PM 73.0 °F 50.0 °F 44% 30.08 in 10.0 mi NNE 13.8 mph 21.9 mph N/A   Partly Cloudy
3:53 PM 73.0 °F 50.0 °F 44% 30.08 in 10.0 mi NNE 12.7 mph - N/A   Partly Cloudy
4:53 PM 72.0 °F 51.1 °F 48% 30.10 in 10.0 mi NNE 11.5 mph - N/A   Partly Cloudy
5:53 PM 68.0 °F 51.1 °F 55% 30.11 in 10.0 mi North 6.9 mph - N/A   Partly Cloudy
6:53 PM 64.9 °F 51.1 °F 61% 30.13 in 10.0 mi NNW 6.9 mph - N/A   Clear
7:53 PM 62.1 °F 50.0 °F 65% 30.13 in 10.0 mi NNW 3.5 mph - N/A   Clear
8:53 PM 60.1 °F 50.0 °F 69% 30.14 in 10.0 mi NNW 4.6 mph - N/A   Clear
9:53 PM 57.0 °F 48.9 °F 74% 30.14 in 10.0 mi Calm Calm - N/A   Clear
10:53 PM 57.9 °F 50.0 °F 75% 30.14 in 10.0 mi Calm Calm - N/A   Clear
11:53 PM 57.0 °F 50.0 °F 77% 30.14 in 10.0 mi Calm Calm - N/A   Clear